Zurück zum Katalog

STARLINK-3874

AktivKommunikationVLEO
NORAD 52365·PAYLOAD·🇺🇸 United States

Gestartet Apr 29, 2022 von Cape Canaveral Space Force Station

Loading…

Nächste Überflüge (nächste 24 Stunden)

TLE

AktuellSource: CelesTrak SupGP

Epoche: Sep 15, 2026, 01:59 UTC

1 52365C 22045AL  26258.08312500 -.00053302  00000+0 -15750-2 0  2588
2 52365  53.1596  50.6995 0001134  84.1707  75.2934 15.34414227    16

Verfolge STARLINK-3874 in Echtzeit mit AllMySat

Download on the App Store